Regional Weather Roundup
Issued by NWS

Home | Current Version | Previous Version | Graphics & Text | Print | Product List | Glossary On
Versions: 1 2 3 4 5 6 7 8 9 10 11 12 13 14 15 16 17 18 19 20 21 22 23 24 25 26 27 28 29 30 31 32 33 34 35 36 37 38 39 40 41 42 43 44 45 46 47 48 49 50
088
ASUS45 KCYS 231410
RWRWY

WYOMING REGIONAL WEATHER ROUNDUP
NATIONAL WEATHER SERVICE CHEYENNE WY
800 AM MDT SUN APR 23 2017

NOTE:  "FAIR" INDICATES FEW OR NO CLOUDS BELOW 12,000 FEET
WITH NO SIGNIFICANT WEATHER AND/OR OBSTRUCTIONS TO VISIBILITY.

WYZ001-231500-
YELLOWSTONE NATIONAL PARK

CITY           SKY/WX    TMP DP  RH WIND       PRES   REMARKS
LK YELLOWSTONE   N/A     29  28  96 CALM      29.96F
W YELLOWSTONE  NOT AVBL

$$
WYZ002>013-054>058-071-098>099-231500-
NORTHERN WYOMING

CITY           SKY/WX    TMP DP  RH WIND       PRES   REMARKS
JACKSON        MOSUNNY   34  27  75 CALM      29.96S
CODY           CLOUDY    48  31  51 NW5       29.84F
GREYBULL       FAIR      40  34  79 E3        29.85S
WORLAND        FAIR      44  42  93 SE5       29.84F
SHERIDAN       FAIR      41  36  82 CALM      29.83F
BUFFALO        FAIR      49  30  48 W6        29.86S
GILLETTE       FAIR      44  37  76 CALM      29.84S
HULETT         FAIR      50  32  50 SW7       29.84F
NEWCASTLE      FAIR      46  30  53 SE12      29.87F

$$
WYZ014>020-022>026-101>103-231500-
CENTRAL WYOMING

CITY           SKY/WX    TMP DP  RH WIND       PRES   REMARKS
BIG PINEY      FAIR      34  26  72 NW6       29.99R WCI  29
PINEDALE       FAIR      32  27  80 CALM      29.99F
DUBOIS         FAIR      36  25  64 CALM      29.92F
LANDER         FAIR      43  32  65 N3        29.88S
RIVERTON       FAIR      45  31  58 SW5       29.90F
CASPER         FAIR      47  29  49 SW15      29.90F
DOUGLAS        FAIR      42  34  73 S3        29.91R

$$
WYZ021-027>030-104>119-231500-
SOUTHERN WYOMING

CITY           SKY/WX    TMP DP  RH WIND       PRES   REMARKS
EVANSTON       FAIR      43  23  45 SE6       29.95F
KEMMERER         N/A     34  28  80 N8        29.97S WCI  27
FORT BRIDGER   FAIR      40  29  65 CALM      30.00R
ROCK SPRINGS   FAIR      40  23  50 S3        29.97S
DIXON            N/A     42  27  55 E7        30.04F
RAWLINS        FAIR      48  19  31 CALM      29.99S
SARATOGA       FAIR      46  21  36 SE15G21   30.01F
LARAMIE        FAIR      43  23  45 S3        30.00S
CHEYENNE       FAIR      43  32  65 CALM      29.99S
TORRINGTON     FAIR      45  34  65 SE12      29.92F
PINE BLUFFS    FAIR      39  36  87 SW6       30.00S WCI  35

$$




USA.gov is the U.S. government's official web portal to all federal, state and local government web resources and services.